Volver al catálogo

ICEYE-X25

ActivoCienciaPO
NORAD 56963·PAYLOAD·🇫🇮 Finland

Lanzado Jun 12, 2023 desde Vandenberg Space Force Base

Loading…

Próximos Pases (próximas 24 horas)

TLE

ActualizadoSource: Space-Track

Época: Sep 14, 2026, 14:13 UTC

1 56963U 23084AH  26257.59266615  .00030263  00000-0  29579-3 0  9997
2 56963  97.5981  50.5075 0002895 344.3422  15.7747 15.66121223181941

Sigue ICEYE-X25 en tiempo real con AllMySat

Download on the App Store